Regional Weather Roundup
Issued by NWS

Home | Current Version | Previous Version | Graphics & Text | Print | Product List | Glossary On
Versions: 1 2 3 4 5 6 7 8 9 10 11 12 13 14 15 16 17 18 19 20 21 22 23 24 25 26 27 28 29 30 31 32 33 34 35 36 37 38 39 40 41 42 43 44 45 46 47 48 49 50
000
ASUS43 KLSX 290207
RWRMO

WEATHER SUMMARY FOR MISSOURI
NATIONAL WEATHER SERVICE SPRINGFIELD MO
900 PM CDT THU MAY 28 2015

NOTE: "FAIR" INDICATES FEW OR NO CLOUDS BELOW 12,000 FEET WITH NO
       SIGNIFICANT WEATHER AND/OR OBSTRUCTIONS TO VISIBILITY.
       CURRENT SKY AND/OR WEATHER CONDITIONS ARE NOT AVAILABLE FOR
       CHILLICOTHE AND FARMINGTON.

MOZ001>031-035>038-043-044-053-054-290300-
...NORTHERN AND WESTERN MISSOURI...

CITY           SKY/WX    TMP DP  RH WIND       PRES   REMARKS
KANSAS CTY INT CLOUDY    69  64  84 CALM      30.00R
KANSAS C DTWN  PTCLDY    71  62  73 CALM      29.98R
LEE`S SUMMIT   MOCLDY    68  65  90 SE6       30.00R
ST JOSEPH      MOCLDY    69  64  84 SE9       29.97S
CHILLICOTHE      N/A     67  65  93 CALM      30.01R
KIRKSVILLE     CLOUDY    65  65 100 SE5       30.03S

$$
MOZ066>068-077>081-088>096-101>105-290300-
...SOUTHWEST MISSOURI...

CITY           SKY/WX    TMP DP  RH WIND       PRES   REMARKS
SPRINGFIELD    PTCLDY    69  65  86 SE7       29.98S
JOPLIN         MOCLDY    70  65  84 CALM      29.97S

$$
MOZ032>034-039>042-045>050-055>058-069>072-290300-
...CENTRAL MISSOURI...

CITY           SKY/WX    TMP DP  RH WIND       PRES   REMARKS
COLUMBIA       CLOUDY    68  66  93 NE9       30.01F
JEFFERSON CITY CLOUDY    70  67  90 E3        30.00F
ROLLA          CLOUDY    71  65  81 SE6       30.01S
SEDALIA        CLOUDY    69  64  84 E7        30.01S
WHITEMAN AFB   MOCLDY    68  64  88 SE6       29.98S
WARRENSBURG    CLOUDY    66  64  94 E3        29.99R
OSAGE BEACH    CLOUDY    64  63  94 NE7       30.00F

$$
MOZ051-052-059>065-290300-
...EAST CENTRAL MISSOURI...

CITY           SKY/WX    TMP DP  RH WIND       PRES   REMARKS
ST LOUIS INTL  MOCLDY    79  64  60 S12       30.05R
SPIRIT OF STL  MOCLDY   N/A N/A N/A SE3       30.02S
ST CHARLES     MOCLDY    73  68  84 CALM      30.02F

$$
MOZ072>076-082>087-097>100-106>115-290300-
...SOUTH CENTRAL AND SOUTHEAST MISSOURI...

CITY           SKY/WX    TMP DP  RH WIND       PRES   REMARKS
CAPE GIRARDEAU CLEAR     72  66  81 S3        30.07R
FARMINGTON     MOCLDY    72  64  78 SE7       30.09F
POPLAR BLUFF   MOCLDY    73  66  78 SE5       30.04S
WEST PLAINS    CLOUDY    72  65  78 S9        30.04R

$$



USA.gov is the U.S. government's official web portal to all federal, state and local government web resources and services.